This is the latest recevied weather packets stored in our database for station/object IW2HNF-3. If no packets are shown the sender has not sent any weather packets the latest 10 day(s).
| Time | Temp. | Humidity | Pressure | Rain* | Wind** | Luminosity | Snow |
|---|---|---|---|---|---|---|---|
| 1777581063 | 15° C | 52% | 1023.4 hPa | 0 mm | - | - | - |
| 1777580438 | 15° C | 51% | 1023.3 hPa | 0 mm | - | - | - |
| 1777578662 | 15.56° C | 50% | 1023.1 hPa | 0 mm | - | - | - |
| 1777578039 | 15.56° C | 50% | 1023 hPa | 0 mm | - | - | - |
| 1777577463 | 15.56° C | 49% | 1022.8 hPa | 0 mm | - | - | - |
| 1777576838 | 15.56° C | 47% | 1022.7 hPa | 0 mm | - | - | - |
| 1777575639 | 16.11° C | 46% | 1022.4 hPa | 0 mm | - | - | - |
| 1777575063 | 16.11° C | 45% | 1022.2 hPa | 0 mm | - | - | - |
| 1777573862 | 16.67° C | 44% | 1021.9 hPa | 0 mm | - | - | - |
| 1777572663 | 16.67° C | 42% | 1021.6 hPa | 0 mm | - | - | - |
| 1777572471 | 17.22° C | 42% | 1021.5 hPa | 0 mm | - | - | - |
| 1777571463 | 17.22° C | 40% | 1021.4 hPa | 0 mm | - | - | - |
| 1777570265 | 17.78° C | 38% | 1021.3 hPa | 0 mm | - | - | - |
| 1777569639 | 17.78° C | 37% | 1021.3 hPa | 0 mm | - | - | - |
| 1777567863 | 18.33° C | 36% | 1021.3 hPa | 0 mm | - | - | - |
| 1777567239 | 18.33° C | 35% | 1021.3 hPa | 0 mm | - | - | - |
| 1777566663 | 18.33° C | 35% | 1021.3 hPa | 0 mm | - | - | - |
| 1777566039 | 18.33° C | 35% | 1021.3 hPa | 0 mm | - | - | - |
| 1777565462 | 18.33° C | 36% | 1021.2 hPa | 0 mm | - | - | - |
| 1777565271 | 18.33° C | 36% | 1021.2 hPa | 0 mm | - | - | - |
| 1777564262 | 18.33° C | 34% | 1021.3 hPa | 0 mm | - | - | - |
| 1777563639 | 18.89° C | 36% | 1021.2 hPa | 0 mm | - | - | - |
| 1777563063 | 18.89° C | 35% | 1021.2 hPa | 0 mm | - | - | - |
| 1777562438 | 18.89° C | 35% | 1021.3 hPa | 0 mm | - | - | - |
| 1777561862 | 18.33° C | 33% | 1021.4 hPa | 0 mm | - | - | - |
* Rain latest hour (hover to see other rain measurements)
** Current wind speed in m/s (hover to see current wind gust speed)